Weather History for YMML - December, 2013

Change the Weather History Date:

Wednesday, December 18, 2013

  Actual Average Record
Temperature  
Mean Temperature 68 °F -  
Max Temperature 82 °F 75 °F 91 °F (2004)
Min Temperature 54 °F 53 °F 46 °F (1999)
Cooling Degree Days 3    
Growing Degree Days 18 (Base 50)    
Moisture  
Dew Point 56 °F    
Average Humidity 70    
Maximum Humidity 88    
Minimum Humidity 32    
Precipitation  
Precipitation 0.00 in 0.06 in - ()
Sea Level Pressure  
Sea Level Pressure 30.12 in    
Wind  
Wind Speed 7 mph ()    
Max Wind Speed 13 mph    
Max Gust Speed -    
Visibility 7.9 miles    
Events      
Averages and records for this station are not official NWS values.
T = Trace of Precipitation, MM = Missing Value Source: Averaged Metar Reports

Daily Weather History Graph

Daily Weather History Graph

Search for Another Location

Airport or City:

Trip Planner

Search our weather history database for the weather conditions in past years. The results will help you decide how hot, cold, wet, or windy it might be!

Date:

Astronomy

Dec. 18, 2013 Rise Set
Actual Time 5:54 AM AEDT 8:40 PM AEDT
Civil Twilight 5:22 AM AEDT 9:11 PM AEDT
Nautical Twilight 4:43 AM AEDT 9:50 PM AEDT
Astronomical Twilight 3:59 AM AEDT 10:34 PM AEDT
Moon 9:06 PM AEDT (12/18) 6:33 AM AEDT (12/18)
Length of Visible Light 15h 48m
Length of Day
14h 46m
Full, 100% of the Moon is Illuminated
Dec 18
Full
Dec 26
Last Quarter
Jan 1
New
Jan 8
First Quarter
Jan 16
Full

Hourly Weather History & Observations

Time (AEDT) Temp. Heat Index Dew Point Humidity Pressure Visibility Wind Dir Wind Speed Gust Speed Precip Events Conditions
12:00 AM 58 °F - 53 °F 80% 30.18 in 19 mi South 9.2 mph - -   Partly Cloudy
12:00 AM 57.2 °F - 53.6 °F 88% 30.18 in 6.2 mi South 9.2 mph - N/A   Mostly Cloudy
12:30 AM 57.2 °F - 53.6 °F 88% 30.18 in 6.2 mi SSE 9.2 mph - N/A   Mostly Cloudy
1:00 AM 58 °F - 53 °F 76% 30.18 in - South 8.1 mph - -  
1:00 AM 57.2 °F - 51.8 °F 82% 30.18 in 6.2 mi South 8.1 mph - N/A   Mostly Cloudy
1:30 AM 57.2 °F - 51.8 °F 82% 30.18 in 6.2 mi South 8.1 mph - N/A   Mostly Cloudy
2:00 AM 57 °F - 52 °F 79% 30.17 in - South 6.9 mph - -  
2:00 AM 57.2 °F - 51.8 °F 82% 30.15 in 6.2 mi South 6.9 mph - N/A   Mostly Cloudy
2:30 AM 57.2 °F - 53.6 °F 88% 30.15 in 6.2 mi South 6.9 mph - N/A   Mostly Cloudy
3:00 AM 57 °F - 53 °F 81% 30.17 in 19 mi South 6.9 mph - -   Partly Cloudy
3:00 AM 57.2 °F - 53.6 °F 88% 30.15 in 6.2 mi South 6.9 mph - N/A   Overcast
3:30 AM 57.2 °F - 51.8 °F 82% 30.15 in 6.2 mi South 8.1 mph - N/A   Overcast
4:00 AM 57 °F - 52 °F 79% 30.17 in - South 8.1 mph - -  
4:00 AM 57.2 °F - 51.8 °F 82% 30.15 in 6.2 mi South 8.1 mph - N/A   Overcast
4:30 AM 57.2 °F - 51.8 °F 82% 30.15 in 6.2 mi South 8.1 mph - N/A   Overcast
5:00 AM 57 °F - 52 °F 79% 30.17 in - South 6.9 mph - -  
5:00 AM 57.2 °F - 51.8 °F 82% 30.15 in 6.2 mi South 6.9 mph - N/A   Overcast
5:30 AM 57.2 °F - 51.8 °F 82% 30.15 in 6.2 mi South 5.8 mph - N/A   Overcast
6:00 AM 57 °F - 53 °F 81% 30.18 in 16 mi SSW 6.9 mph - -   Haze
6:00 AM 57.2 °F - 53.6 °F 88% 30.18 in 6.2 mi SSW 6.9 mph - N/A   Overcast
6:30 AM 57.2 °F - 51.8 °F 82% 30.18 in 6.2 mi South 6.9 mph - N/A   Overcast
7:00 AM 57 °F - 53 °F 81% 30.19 in - South 4.6 mph - -  
7:00 AM 57.2 °F - 53.6 °F 88% 30.18 in 6.2 mi South 4.6 mph - N/A   Overcast
7:30 AM 57.2 °F - 53.6 °F 88% 30.18 in 6.2 mi SSW 4.6 mph - N/A   Overcast
8:00 AM 58 °F - 53 °F 79% 30.19 in - SW 1.2 mph - -  
8:00 AM 57.2 °F - 53.6 °F 88% 30.18 in 6.2 mi SW 1.2 mph - N/A   Overcast
8:30 AM 57.2 °F - 53.6 °F 88% 30.18 in 6.2 mi South 5.8 mph - N/A   Mostly Cloudy
9:00 AM 58 °F - 54 °F 82% 30.20 in 9 mi SSW 4.6 mph - -   Haze
9:00 AM 57.2 °F - 53.6 °F 88% 30.18 in 6.2 mi SSW 4.6 mph - N/A   Overcast
9:30 AM 59.0 °F - 53.6 °F 82% 30.18 in 6.2 mi South 5.8 mph - N/A   Overcast
10:00 AM 60 °F - 54 °F 74% 30.20 in - SSW 4.6 mph - -  
10:00 AM 60.8 °F - 53.6 °F 77% 30.18 in 6.2 mi SSW 4.6 mph - N/A   Mostly Cloudy
10:30 AM 60.8 °F - 53.6 °F 77% 30.18 in 6.2 mi SSW 6.9 mph - N/A   Mostly Cloudy
11:00 AM 64 °F - 54 °F 63% 30.18 in - ESE 6.9 mph - -  
11:00 AM 64.4 °F - 53.6 °F 68% 30.18 in 6.2 mi ESE 6.9 mph - N/A   Scattered Clouds
11:30 AM 66.2 °F - 55.4 °F 68% 30.15 in 6.2 mi South 4.6 mph - N/A   Partly Cloudy
12:00 PM 69 °F - 54 °F 49% 30.15 in 11 mi SSE 5.8 mph - -   Haze
12:00 PM 68.0 °F - 53.6 °F 60% 30.15 in - SSE 5.8 mph - N/A   Clear
12:30 PM 71.6 °F - 55.4 °F 57% 30.12 in - East 4.6 mph - N/A   Clear
1:00 PM 74 °F - 55 °F 41% 30.12 in - SSE 5.8 mph - -  
1:00 PM 73.4 °F - 55.4 °F 53% 30.12 in - SSE 5.8 mph - N/A   Clear
1:30 PM 77.0 °F - 57.2 °F 50% 30.12 in - SE 5.8 mph - N/A   Clear
2:00 PM 79 °F - 56 °F 34% 30.10 in - South 8.1 mph - -  
2:00 PM 78.8 °F - 55.4 °F 44% 30.09 in - South 8.1 mph - N/A   Clear
2:30 PM 78.8 °F - 57.2 °F 47% 30.09 in - SSE 11.5 mph - N/A   Clear
3:00 PM 79 °F - 57 °F 36% 30.09 in 12 mi South 11.5 mph - -   Haze
3:00 PM 78.8 °F - 57.2 °F 47% 30.09 in - South 11.5 mph - N/A   Clear
3:30 PM 78.8 °F - 57.2 °F 47% 30.06 in - SSE 11.5 mph - N/A   Clear
4:00 PM 82 °F - 57 °F 32% 30.06 in - SSE 9.2 mph - -  
4:00 PM 82.4 °F 82.0 °F 57.2 °F 42% 30.06 in - SSE 9.2 mph - N/A   Clear
4:30 PM 80.6 °F 81.1 °F 59.0 °F 48% 30.06 in - SSE 12.7 mph - N/A   Clear
5:00 PM 79 °F - 60 °F 43% 30.06 in - South 11.5 mph - -  
5:00 PM 78.8 °F - 60.8 °F 54% 30.06 in - South 11.5 mph - N/A   Clear
5:30 PM 78.8 °F - 60.8 °F 54% 30.04 in - South 11.5 mph - N/A   Clear
6:00 PM 78 °F - 61 °F 46% 30.05 in 9 mi South 10.4 mph - -   Haze
6:00 PM 78.8 °F - 60.8 °F 54% 30.04 in - South 10.4 mph - N/A   Clear
6:30 PM 77.0 °F - 60.8 °F 57% 30.04 in - South 11.5 mph - N/A   Clear
7:00 PM 76 °F - 62 °F 52% 30.05 in - South 10.4 mph - -  
7:00 PM 77.0 °F - 62.6 °F 61% 30.04 in - South 10.4 mph - N/A   Clear
7:30 PM 75.2 °F - 60.8 °F 61% 30.04 in - South 9.2 mph - N/A   Clear
8:00 PM 73 °F - 61 °F 58% 30.05 in - South 9.2 mph - -  
8:00 PM 73.4 °F - 60.8 °F 65% 30.04 in - South 9.2 mph - N/A   Clear
8:30 PM 69.8 °F - 60.8 °F 73% 30.04 in - SSW 8.1 mph - N/A   Clear
9:00 PM 67 °F - 61 °F 75% 30.05 in 9 mi SW 8.1 mph - -   Haze
9:00 PM 68.0 °F - 60.8 °F 78% 30.04 in - SW 8.1 mph - N/A   Clear
9:30 PM 66.2 °F - 60.8 °F 83% 30.04 in - SSW 5.8 mph - N/A   Clear
10:00 PM 65 °F - 60 °F 78% 30.06 in - West 6.9 mph - -  
10:00 PM 64.4 °F - 60.8 °F 88% 30.06 in - West 6.9 mph - N/A   Clear
10:30 PM 64.4 °F - 59.0 °F 83% 30.06 in - WSW 5.8 mph - N/A   Clear
11:00 PM 64 °F - 59 °F 79% 30.05 in - WSW 4.6 mph - -  
11:00 PM 64.4 °F - 59.0 °F 83% 30.04 in - WSW 4.6 mph - N/A   Clear
11:30 PM 64.4 °F - 59.0 °F 83% 30.04 in - WNW 4.6 mph - N/A   Clear